NIMBUS 2 DEB, 25614

Orbit data source: Space-Track

NIMBUS 2 DEB, 25614 is space debris in SSO originally from a launch on Sun, 15 May 1966 UTC launched from the Air Force Western Test Range (AFWTR). Debris objects in space refer to the collection of defunct objects orbiting the Earth. Examples of debris include non-operational satellites, rocket bodies, and fragments generated from explosions, collisions, or faulty payload assembly.

Loading next visibility...
Identifier
25614, 1966-040G
Orbit
SSO
Country
Flag of USUS
Related business
Manufacturer
Unknown
Mission
Spacecraft
Bus & Motor
Unknown
Mass
Unknown
Launch date (UTC)
1966-05-15 (60 years ago)
Launch vehicle
Unknown
Launch site
Air Force Western Test Range (AFWTR)
Object type
Payload
Rocket body
Debris
Shape & HBR
Unknown shape, 0.1 m
Radar Cross Section
Medium (>0.1 m² and <1 m²)

Expand to show TLE details & history
Last TLE update: 2 days ago

TLE from 2 days ago
0 NIMBUS 2 DEB
1 25614U 66040G   26171.48672285  .00001837  00000-0  23834-2 0  9994
2 25614 100.5154   2.7880 0055539  77.2971 312.3907 13.63023933470303
Epoch: 2026-06-20T11:40Z
TLE epoch observation values (Epoch: 2026-06-20T11:40:52.854Z)
Latitude
28.7253°
Longitude
-86.94122°
Altitude
1,000.55 km
Speed
7.368 km/s
True Right ascension
23h 47m 55s
True Declination
28° 35' 07"
Sunlit
Object was in daylight at epoch
Visualization orbit readout
Latitude
Unknown
Longitude
Unknown
Altitude
Unknown
Speed
Unknown
Apparent Right ascension
Unknown
Apparent Declination
Unknown
Sunlit
N/A
Visualization observer readout
Local Sidereal Time
10:01:29
Azimuth
Unknown
Elevation
Unknown
Doppler factor
Unknown
Orbital elements
Apogee altitude
1,063.15 km
Perigee altitude
980.951 km
Semi-major axis
7,400.187 km
Eccentricity
0.00555
Inclination
100.5154°
RAAN
2.788°
Arg. of periapsis
77.2971°
True anomaly
311.91845°
Mean anomaly
312.3907°
Eccentric anomaly
312.1548°
Mean motion
3.40941 °/min
Orbital period
105.59 mins
BSTAR
0.0023834
Loading maneuver chart data...
Computing Atmospheric mass density...
Loading historical data...
Loading historical data...
Loading historical data...
Loading historical data...
Loading historical data...
Loading historical data...
Loading historical data...

Documentation

Showing up to 5 results
|